Flag for Kazakhstan Weather past 2 weeks in Almaty, Kazakhstan

Now
68 °F

Broken clouds.


Feels Like: 68 °F
Forecast: 36 / 65 °F
Wind: 6 mph from Southwest

Location: Almaty Airport


UV Index: 5 (Moderate)

Visibility: N/A


Pressure: 30.04 "Hg

Humidity: 20%

Dew point: 25 °F

Location of AlmatyLocation

Historic Weather in Almaty

°F

Almaty temperature yesterday

Maximum temperature yesterday: 64 °F (at 4:00 PM)
Minimum temperature yesterday: 36 °F (at 3:00 AM)
Average temperature yesterday: 50 °F

Past Weeks' High & Low Weather Summary

 TemperatureHumidityPressure
High73 °F (Apr 10, 2:00 PM)100% (Apr 5, 2:00 AM)30.54 "Hg (Apr 5, 2:00 AM)
Low25 °F (Apr 15, 4:30 AM)13% (Apr 9, 3:30 PM)29.74 "Hg (Apr 10, 1:30 PM)
Average46 °F70%30.16 "Hg
* Reported Apr 4 3:00 PM — Apr 19 3:00 PM, Almaty, Weather by CustomWeather, © 2014

Note: Actual official high and low records may vary slightly from our data, if they occured in-between our weather recording intervals... More about our weather records

Advertising

Historic Weather Conditions — Data for Previous 24 hours

 ConditionsComfort  
Time TempWeatherWind HumidityBarometerVisibility
3:00 PM
Apr 19
68 °FPartly sunny.6 mph18%30.04 "HgN/A
2:30 PM68 °FPartly sunny.3 mph17%30.07 "HgN/A
2:00 PM68 °FPartly sunny.3 mph20%30.07 "HgN/A
1:30 PM66 °FScattered clouds.3 mph22%30.07 "HgN/A
1:00 PM66 °FScattered clouds.6 mph22%30.07 "HgN/A
12:30 PM64 °FScattered clouds.3 mph30%30.07 "HgN/A
12:00 PM63 °FScattered clouds.3 mph30%30.09 "HgN/A
11:30 AM61 °FScattered clouds.3 mph27%30.09 "HgN/A
11:00 AM59 °FPassing clouds.3 mph29%30.09 "HgN/A
10:30 AM57 °FPassing clouds.3 mph36%30.09 "HgN/A
10:00 AM55 °FPassing clouds.3 mph38%30.12 "HgN/A
9:30 AM54 °FScattered clouds.1 mph44%30.12 "HgN/A
9:00 AM52 °FScattered clouds.1 mph44%30.12 "HgN/A
8:30 AM50 °FScattered clouds.1 mph47%30.12 "HgN/A
8:00 AM48 °FScattered clouds.1 mph50%30.12 "HgN/A
7:30 AM45 °FScattered clouds.1 mph61%30.12 "HgN/A
7:00 AM37 °FScattered clouds.1 mph75%30.12 "HgN/A
6:30 AM36 °FPassing clouds.3 mph75%30.12 "HgN/A
6:00 AM36 °FPassing clouds.1 mph75%30.12 "HgN/A
5:30 AM36 °FPassing clouds.1 mph81%30.12 "HgN/A
5:00 AM36 °FPassing clouds.1 mph75%30.12 "HgN/A
4:30 AM37 °FPassing clouds.No wind75%30.12 "HgN/A
4:00 AM37 °FPassing clouds.1 mph70%30.12 "HgN/A
3:30 AM39 °FPassing clouds.3 mph65%30.12 "HgN/A
3:00 AM39 °FPassing clouds.3 mph65%30.12 "HgN/A
2:30 AM39 °FPassing clouds.3 mph65%30.12 "Hg3 mi
2:00 AM39 °FPassing clouds.6 mph65%30.12 "Hg3 mi
1:30 AM41 °FPassing clouds.3 mph61%30.15 "Hg3 mi
1:00 AM41 °FPassing clouds.3 mph61%30.15 "Hg3 mi
12:30 AM41 °FPassing clouds.3 mph57%30.15 "Hg2 mi
12:00 AM41 °FPassing clouds.6 mph61%30.15 "Hg2 mi
11:30 PM
Apr 18
45 °FPassing clouds.3 mph53%30.15 "Hg1 mi
11:00 PM45 °FPassing clouds.3 mph49%30.18 "Hg3 mi
10:30 PM45 °FPassing clouds.3 mph49%30.18 "Hg1 mi
10:00 PM48 °FPassing clouds.6 mph40%30.18 "Hg1 mi
9:30 PM48 °FPassing clouds.8 mph43%30.18 "Hg1 mi
9:00 PM50 °FPassing clouds.6 mph37%30.18 "Hg3 mi
8:30 PM52 °FPassing clouds.6 mph32%30.18 "Hg3 mi
8:00 PM55 °FPassing clouds.3 mph26%30.18 "HgN/A
7:30 PM57 °FPassing clouds.6 mph23%30.15 "HgN/A
7:00 PM59 °FPassing clouds.6 mph18%30.15 "HgN/A
6:30 PM61 °FPassing clouds.8 mph16%30.15 "HgN/A
6:00 PM63 °FScattered clouds.8 mph19%30.15 "HgN/A
5:30 PM63 °FPassing clouds.8 mph19%30.15 "HgN/A
5:00 PM63 °FPassing clouds.6 mph25%30.15 "HgN/A
4:30 PM64 °FPassing clouds.8 mph22%30.15 "HgN/A
4:00 PM64 °FPassing clouds.6 mph24%30.15 "HgN/A
Weather by CustomWeather, © 2014

See weather overview